Regional Weather Roundup
Issued by NWS

Home | Current Version | Previous Version | Graphics & Text | Print | Product List | Glossary On
Versions: 1 2 3 4 5 6 7 8 9 10 11 12 13 14 15 16 17 18 19 20 21 22 23 24 25 26 27 28 29 30 31 32 33 34 35 36 37 38 39 40 41 42 43 44 45 46 47 48 49 50
000
ASUS43 KOAX 070310
RWRNE

WEATHER ROUNDUP FOR NEBRASKA
NATIONAL WEATHER SERVICE OMAHA NE
900 PM CST FRI MAR 06 2015

NOTES: SATELLITE DATA IS BEING USED TO AUGMENT CLOUD COVER ABOVE
       12000 FEET.
       "FAIR" INDICATES FEW OR NO CLOUDS BELOW 12,000 FEET WITH NO
       SIGNIFICANT WEATHER AND/OR OBSTRUCTIONS TO VISIBILITY.

  * THESE STATIONS DO NOT REPORT WEATHER SUCH AS RAIN...SNOW OR FOG.

NEZ001>004-019>022-054>056-070400-
NEBRASKA PANHANDLE

CITY           SKY/WX    TMP DP  RH WIND       PRES   REMARKS
SCOTTSBLUFF    CLEAR     35  20  54 NW3       30.23R
ALLIANCE       PTCLDY    29  16  58 W10       30.19R WCI  20
CHADRON        PTCLDY    34  24  67 SW7       30.18R WCI  28
KIMBALL        CLEAR     41  20  43 NW20G26   30.23R
SIDNEY         CLEAR     39  20  46 NW13      30.23R WCI  31
$$

NEZ057>060-069>072-079>082-070400-
SOUTHWEST NEBRASKA

CITY           SKY/WX    TMP DP  RH WIND       PRES   REMARKS
NORTH PLATTE   CLEAR     32  17  54 W5        30.17R WCI  27
IMPERIAL         N/A     42  15  33 W10       30.20R
LEXINGTON      CLEAR     34  14  42 NW5       30.15R WCI  30
MCCOOK         CLEAR     41  17  38 SW10      30.18R
OGALLALA       CLEAR     34  16  46 SW3       30.19R
$$

NEZ005>010-023>029-035>040-094-070400-
NORTH CENTRAL NEBRASKA

CITY           SKY/WX    TMP DP  RH WIND       PRES   REMARKS
VALENTINE      CLEAR     35  21  56 W7        30.12R WCI  29
AINSWORTH      CLEAR     35  17  49 SW7       30.12R WCI  29
BROKEN BOW     CLEAR     43  15  32 NW9       30.14R
O`NEILL        CLEAR     34  16  47 SW6       30.10S WCI  29
ORD            CLEAR     36  13  38 NW6       30.12R WCI  31
THEDFORD       CLEAR     39  17  39 W7        30.15R WCI  34
$$

NEZ041-046>049-061>064-073>077-083>087-070400-
SOUTH CENTRAL NEBRASKA

CITY           SKY/WX    TMP DP  RH WIND       PRES   REMARKS
GRAND ISLAND   CLEAR     37  18  46 W7        30.13R WCI  32
AURORA         CLEAR     38  18  45 SW5       30.11S WCI  34
HASTINGS       CLEAR     43  15  32 SW7       30.12S
HEBRON         CLEAR     46  17  31 SW6       30.14S
HOLDREGE       CLEAR     45  15  31 SW6       30.15S
KEARNEY *      CLEAR     43  16  33 W8        30.15R
YORK           CLEAR     39  19  45 SW7       30.12S WCI  34
$$

NEZ011>018-030>034-042>045-070400-
NORTHEAST NEBRASKA

CITY           SKY/WX    TMP DP  RH WIND       PRES   REMARKS
NORFOLK        PTCLDY    34  16  47 NW3       30.09R
ALBION         CLEAR     34  12  40 NW3       30.11R
BLAIR          MOCLDY    52  20  28 CALM      30.10S
COLUMBUS *     CLEAR     30  10  43 NW3       30.12S
FREMONT        MOCLDY    44  20  38 CALM      30.11S
TEKAMAH        CLOUDY    39  22  50 NW3       30.11S
WAYNE          CLOUDY    38  19  47 SW3       30.11R
$$

NEZ050>053-065>068-078-088>093-070400-
SOUTHEAST NEBRASKA

CITY           SKY/WX    TMP DP  RH WIND       PRES   REMARKS
LINCOLN        PTCLDY    40  18  41 CALM      30.13S
OMAHA EPPLEY   MOCLDY    41  21  44 CALM      30.11S
BEATRICE       CLEAR     41  17  38 SW3       30.14S
FALLS CITY     CLEAR     45  18  34 S10       30.15S
NEBRASKA CITY  PTCLDY    44   8  23 SW10      30.12F
PLATTSMOUTH    MOCLDY    47  13  24 SW8       30.11S
$$

NEZ044-045-051>053-067-070400-
OMAHA AREA

CITY           SKY/WX    TMP DP  RH WIND       PRES   REMARKS
OMAHA EPPLEY   MOCLDY    41  21  44 CALM      30.11S
BLAIR          MOCLDY    52  20  28 CALM      30.10S
FREMONT        MOCLDY    44  20  38 CALM      30.11S
MILLARD        MOCLDY    41  22  48 CALM      30.11S
OFFUTT AFB     MOCLDY    35  21  56 CALM      30.10S
PLATTSMOUTH    MOCLDY    47  13  24 SW8       30.11S
WAHOO          FAIR      43  15  33 CALM      30.11R
$$



USA.gov is the U.S. government's official web portal to all federal, state and local government web resources and services.